| time (UTC) | temp F | wind direction | speed knots | gust knots | rain 1hr in | rain 24hr in | rain mn in | humidity % | barometer mb |
| 20260510193149 | 75 | 24 | 1.7 | 4.3 | 0.00 | 0.00 | 0.00 | 60 | 1008.5 |
| 20260510192649 | 75 | 335 | 1.7 | 5.2 | 0.00 | 0.00 | 0.00 | 60 | 1008.5 |
| 20260510192149 | 74 | 64 | 1.7 | 5.2 | 0.00 | 0.00 | 0.00 | 61 | 1008.5 |
| 20260510191647 | 74 | 347 | 1.7 | 4.3 | 0.00 | 0.00 | 0.00 | 61 | 1008.5 |
| 20260510191148 | 74 | 15 | 1.7 | 4.3 | 0.00 | 0.00 | 0.00 | 61 | 1008.5 |
| 20260510190650 | 74 | 325 | 1.7 | 4.3 | 0.00 | 0.00 | 0.00 | 62 | 1008.5 |
| 20260510190147 | 75 | 316 | 1.7 | 5.2 | 0.00 | 0.00 | 0.00 | 60 | 1008.5 |
| 20260510185644 | 74 | 355 | 1.7 | 5.2 | 0.00 | 0.00 | 0.00 | 61 | 1008.5 |
| 20260510185142 | 74 | 338 | 1.7 | 4.3 | 0.00 | 0.00 | 0.00 | 62 | 1008.5 |
| 20260510184641 | 74 | 30 | 1.7 | 4.3 | 0.00 | 0.00 | 0.00 | 62 | 1008.5 |
| 20260510184139 | 74 | 84 | 1.7 | 5.2 | 0.00 | 0.00 | 0.00 | 62 | 1008.4 |
| 20260510183137 | 73 | 355 | 1.7 | 4.3 | 0.00 | 0.00 | 0.00 | 63 | 1008.4 |
| 20260510182640 | 73 | 344 | 0.9 | 4.3 | 0.00 | 0.00 | 0.00 | 64 | 1008.5 |
| 20260510181638 | 72 | 57 | 0.9 | 5.2 | 0.00 | 0.00 | 0.00 | 66 | 1008.5 |
| 20260510181137 | 72 | 145 | 1.7 | 7.0 | 0.00 | 0.00 | 0.00 | 66 | 1008.5 |
| 20260510180635 | 72 | 88 | 1.7 | 7.0 | 0.00 | 0.00 | 0.00 | 67 | 1008.5 |
| 20260510175629 | 69 | 73 | 0.9 | 3.5 | 0.00 | 0.00 | 0.00 | 72 | 1008.6 |
| 20260510173620 | 67 | 73 | 0.9 | 3.5 | 0.00 | 0.00 | 0.00 | 73 | 1008.6 |
| 20260510172615 | 65 | 73 | 0.0 | 2.6 | 0.00 | 0.00 | 0.00 | 76 | 1008.6 |
| 20260510172121 | 64 | 73 | 0.9 | 2.6 | 0.00 | 0.00 | 0.00 | 78 | 1008.6 |
| 20260510171615 | 63 | 73 | 0.9 | 2.6 | 0.00 | 0.00 | 0.00 | 79 | 1008.6 |
| 20260510171114 | 63 | 73 | 0.9 | 2.6 | 0.00 | 0.00 | 0.00 | 80 | 1008.5 |
| 20260510170612 | 63 | 73 | 0.9 | 2.6 | 0.00 | 0.00 | 0.00 | 79 | 1008.5 |
| 20260510170110 | 63 | 73 | 0.9 | 3.5 | 0.00 | 0.00 | 0.00 | 82 | 1008.5 |
| 20260510165606 | 61 | 73 | 0.9 | 4.3 | 0.00 | 0.00 | 0.00 | 83 | 1008.5 |
| 20260510165109 | 61 | 73 | 0.9 | 4.3 | 0.00 | 0.00 | 0.00 | 83 | 1008.5 |
| 20260510164607 | 60 | 73 | 0.9 | 3.5 | 0.00 | 0.00 | 0.00 | 85 | 1008.5 |
| 20260510164104 | 59 | 73 | 0.9 | 3.5 | 0.00 | 0.00 | 0.00 | 88 | 1008.6 |
| 20260510163606 | 59 | 73 | 1.7 | 6.1 | 0.00 | 0.00 | 0.00 | 88 | 1008.6 |
| 20260510163102 | 58 | 74 | 1.7 | 6.1 | 0.00 | 0.00 | 0.00 | 88 | 1008.6 |
| 20260510162600 | 58 | 36 | 0.9 | 6.1 | 0.00 | 0.00 | 0.00 | 91 | 1008.7 |
| 20260510162105 | 57 | 346 | 0.9 | 6.1 | 0.00 | 0.00 | 0.00 | 92 | 1008.7 |
| 20260510161558 | 56 | 103 | 0.9 | 4.3 | 0.00 | 0.00 | 0.00 | 93 | 1008.7 |
| 20260510161057 | 56 | 111 | 0.9 | 6.1 | 0.00 | 0.00 | 0.00 | 94 | 1008.7 |
| 20260510160555 | 55 | 87 | 1.7 | 6.1 | 0.00 | 0.00 | 0.00 | 94 | 1008.6 |
| 20260510160048 | 55 | 71 | 0.9 | 5.2 | 0.00 | 0.00 | 0.00 | 95 | 1008.6 |
| 20260510155546 | 54 | 110 | 0.9 | 5.2 | 0.00 | 0.00 | 0.00 | 95 | 1008.6 |
| 20260510155043 | 54 | 80 | 1.7 | 5.2 | 0.00 | 0.00 | 0.00 | 95 | 1008.6 |
| 20260510154544 | 54 | 125 | 1.7 | 4.3 | 0.00 | 0.00 | 0.00 | 95 | 1008.6 |
| 20260510154038 | 54 | 92 | 1.7 | 4.3 | 0.00 | 0.00 | 0.00 | 95 | 1008.6 |
| 20260510153536 | 53 | 59 | 1.7 | 5.2 | 0.00 | 0.00 | 0.00 | 96 | 1008.6 |
| 20260510153035 | 53 | 76 | 0.9 | 5.2 | 0.00 | 0.00 | 0.00 | 96 | 1008.6 |
| 20260510152536 | 53 | 98 | 0.9 | 4.3 | 0.00 | 0.00 | 0.00 | 96 | 1008.6 |
| 20260510152035 | 53 | 74 | 0.9 | 4.3 | 0.00 | 0.00 | 0.00 | 96 | 1008.6 |
| 20260510151534 | 52 | 88 | 0.0 | 4.3 | 0.00 | 0.00 | 0.00 | 96 | 1008.6 |
| 20260510151030 | 52 | 142 | 0.0 | 2.6 | 0.00 | 0.00 | 0.00 | 96 | 1008.4 |
| 20260510150529 | 52 | 231 | 0.0 | 2.6 | 0.00 | 0.00 | 0.00 | 96 | 1008.4 |
| 20260510150021 | 52 | 231 | 0.0 | 0.0 | 0.00 | 0.00 | 0.00 | 96 | 1008.4 |
| 20260510145521 | 52 | 232 | 0.0 | 0.0 | 0.00 | 0.00 | 0.00 | 96 | 1008.4 |
| 20260510145016 | 52 | 234 | 0.0 | 0.0 | 0.00 | 0.00 | 0.00 | 96 | 1008.4 |
| 20260510144515 | 52 | 251 | 0.0 | 0.0 | 0.00 | 0.00 | 0.00 | 96 | 1008.4 |
| 20260510144014 | 52 | 251 | 0.0 | 0.0 | 0.00 | 0.00 | 0.00 | 96 | 1008.4 |
| 20260510143512 | 52 | 251 | 0.0 | 0.9 | 0.00 | 0.00 | 0.00 | 96 | 1008.4 |
| 20260510143006 | 52 | 251 | 0.0 | 0.9 | 0.00 | 0.00 | 0.00 | 96 | 1008.4 |
| 20260510142005 | 51 | 162 | 0.0 | 2.6 | 0.00 | 0.00 | 0.00 | 96 | 1008.4 |
| 20260510141505 | 51 | 291 | 0.0 | 2.6 | 0.00 | 0.00 | 0.00 | 96 | 1008.4 |
| 20260510141006 | 51 | 292 | 0.0 | 0.9 | 0.00 | 0.00 | 0.00 | 96 | 1008.1 |
| 20260510140459 | 51 | 292 | 0.0 | 1.7 | 0.00 | 0.00 | 0.00 | 96 | 1008.1 |
| 20260510135455 | 51 | 276 | 0.9 | 1.7 | 0.00 | 0.00 | 0.00 | 95 | 1007.9 |
| 20260510133946 | 51 | 276 | 0.0 | 1.7 | 0.00 | 0.00 | 0.00 | 96 | 1007.9 |
| 20260510133446 | 51 | 276 | 0.0 | 1.7 | 0.00 | 0.00 | 0.00 | 95 | 1007.9 |
| 20260510132446 | 51 | 276 | 0.0 | 1.7 | 0.00 | 0.00 | 0.00 | 95 | 1007.8 |
| 20260510131940 | 50 | 276 | 0.9 | 2.6 | 0.00 | 0.00 | 0.00 | 95 | 1007.8 |
| 20260510130937 | 51 | 304 | 0.0 | 2.6 | 0.00 | 0.00 | 0.00 | 95 | 1007.8 |
| 20260510130437 | 51 | 304 | 0.0 | 1.7 | 0.00 | 0.00 | 0.00 | 95 | 1007.8 |
| 20260510125935 | 51 | 304 | 0.0 | 1.7 | 0.00 | 0.00 | 0.00 | 95 | 1007.8 |
| 20260510124432 | 51 | 304 | 0.9 | 3.5 | 0.00 | 0.00 | 0.00 | 95 | 1007.8 |
| 20260510123926 | 51 | 304 | 0.9 | 2.6 | 0.00 | 0.00 | 0.00 | 95 | 1007.8 |
| 20260510123425 | 51 | 304 | 0.0 | 2.6 | 0.00 | 0.00 | 0.00 | 95 | 1007.8 |
| 20260510122426 | 51 | 304 | 0.0 | 1.7 | 0.00 | 0.00 | 0.00 | 95 | 1007.8 |
| 20260510121920 | 51 | 304 | 0.0 | 1.7 | 0.00 | 0.00 | 0.00 | 95 | 1007.8 |
| 20260510121419 | 51 | 304 | 0.0 | 2.6 | 0.00 | 0.00 | 0.00 | 95 | 1007.8 |
| 20260510120923 | 51 | 304 | 0.9 | 3.5 | 0.00 | 0.00 | 0.00 | 95 | 1007.7 |
| 20260510115416 | 50 | 304 | 0.9 | 2.6 | 0.00 | 0.00 | 0.00 | 95 | 1007.5 |
| 20260510113909 | 50 | 304 | 0.9 | 3.5 | 0.00 | 0.00 | 0.00 | 95 | 1007.5 |
| 20260510113408 | 50 | 304 | 0.9 | 3.5 | 0.00 | 0.00 | 0.00 | 95 | 1007.5 |
| 20260510112906 | 50 | 304 | 0.9 | 3.5 | 0.00 | 0.00 | 0.00 | 95 | 1007.7 |
| 20260510112407 | 50 | 304 | 0.9 | 3.5 | 0.00 | 0.00 | 0.00 | 95 | 1007.7 |
| 20260510111900 | 51 | 304 | 0.9 | 3.5 | 0.00 | 0.00 | 0.00 | 95 | 1007.7 |
| 20260510111358 | 51 | 304 | 1.7 | 3.5 | 0.00 | 0.00 | 0.00 | 95 | 1007.8 |
| 20260510110851 | 51 | 304 | 1.7 | 3.5 | 0.00 | 0.00 | 0.00 | 95 | 1007.8 |
| 20260510110350 | 51 | 304 | 1.7 | 5.2 | 0.00 | 0.00 | 0.00 | 95 | 1007.8 |
| 20260510105848 | 51 | 304 | 1.7 | 5.2 | 0.00 | 0.00 | 0.00 | 95 | 1007.8 |
| 20260510105344 | 51 | 307 | 1.7 | 4.3 | 0.00 | 0.00 | 0.00 | 95 | 1007.8 |
| 20260510104843 | 51 | 307 | 1.7 | 3.5 | 0.00 | 0.00 | 0.00 | 94 | 1007.8 |
| 20260510103839 | 51 | 307 | 0.9 | 3.5 | 0.00 | 0.00 | 0.00 | 94 | 1007.9 |
| 20260510103333 | 51 | 307 | 1.7 | 4.3 | 0.00 | 0.00 | 0.00 | 94 | 1007.9 |
| 20260510102828 | 51 | 307 | 0.9 | 4.3 | 0.00 | 0.00 | 0.00 | 94 | 1007.9 |
| 20260510102326 | 51 | 331 | 0.9 | 1.7 | 0.00 | 0.00 | 0.00 | 94 | 1007.9 |
| 20260510101824 | 51 | 331 | 0.0 | 1.7 | 0.00 | 0.00 | 0.00 | 94 | 1007.9 |
| 20260510101326 | 51 | 331 | 0.0 | 1.7 | 0.00 | 0.00 | 0.00 | 94 | 1007.9 |
| 20260510100821 | 51 | 331 | 0.0 | 1.7 | 0.00 | 0.00 | 0.00 | 94 | 1007.9 |
| 20260510100324 | 51 | 331 | 0.9 | 1.7 | 0.00 | 0.00 | 0.00 | 94 | 1007.9 |
| 20260510095822 | 51 | 331 | 0.0 | 1.7 | 0.00 | 0.00 | 0.00 | 94 | 1007.9 |
| 20260510095319 | 51 | 331 | 0.0 | 0.9 | 0.00 | 0.00 | 0.00 | 94 | 1007.9 |
| 20260510094818 | 51 | 331 | 0.0 | 1.7 | 0.00 | 0.00 | 0.00 | 94 | 1007.9 |
| 20260510094312 | 51 | 331 | 0.0 | 1.7 | 0.00 | 0.00 | 0.00 | 94 | 1007.9 |
| 20260510093813 | 51 | 331 | 0.0 | 1.7 | 0.00 | 0.00 | 0.00 | 94 | 1007.9 |
| 20260510093313 | 51 | 331 | 0.0 | 1.7 | 0.00 | 0.00 | 0.00 | 94 | 1007.9 |
| 20260510092815 | 51 | 331 | 0.0 | 1.7 | 0.00 | 0.00 | 0.00 | 94 | 1008.0 |
| 20260510092307 | 50 | 331 | 0.0 | 1.7 | 0.00 | 0.00 | 0.00 | 94 | 1008.0 |
| 20260510091804 | 50 | 331 | 0.0 | 0.0 | 0.00 | 0.00 | 0.00 | 94 | 1008.0 |
| 20260510090759 | 50 | 331 | 0.0 | 0.9 | 0.00 | 0.00 | 0.00 | 94 | 1008.0 |
| 20260510090259 | 50 | 331 | 0.0 | 0.0 | 0.00 | 0.00 | 0.00 | 94 | 1008.0 |
| 20260510085754 | 50 | 331 | 0.0 | 0.0 | 0.00 | 0.00 | 0.00 | 94 | 1008.0 |
| 20260510083749 | 49 | 331 | 0.0 | 0.0 | 0.00 | 0.00 | 0.00 | 94 | 1008.0 |
| 20260510082240 | 49 | 331 | 0.0 | 0.0 | 0.00 | 0.00 | 0.00 | 93 | 1008.0 |
| 20260510081742 | 49 | 331 | 0.0 | 0.0 | 0.00 | 0.00 | 0.00 | 93 | 1008.0 |
| 20260510080739 | 49 | 331 | 0.0 | 0.0 | 0.00 | 0.00 | 0.00 | 93 | 1008.1 |
| 20260510080235 | 49 | 331 | 0.0 | 0.0 | 0.00 | 0.00 | 0.00 | 93 | 1008.1 |
| 20260510075735 | 49 | 331 | 0.0 | 0.0 | 0.00 | 0.00 | 0.00 | 93 | 1008.2 |
| 20260510075232 | 49 | 331 | 0.0 | 0.0 | 0.00 | 0.00 | 0.00 | 93 | 1008.2 |
| 20260510074731 | 49 | 331 | 0.0 | 0.0 | 0.00 | 0.00 | 0.00 | 92 | 1008.2 |
| 20260510074225 | 49 | 331 | 0.0 | 0.0 | 0.00 | 0.00 | 0.00 | 93 | 1008.3 |
| 20260510073724 | 49 | 331 | 0.0 | 0.0 | 0.00 | 0.00 | 0.00 | 93 | 1008.3 |
| 20260510073224 | 49 | 331 | 0.0 | 0.0 | 0.00 | 0.00 | 0.00 | 92 | 1008.3 |
| 20260510072718 | 49 | 331 | 0.0 | 0.0 | 0.00 | 0.00 | 0.00 | 92 | 1008.3 |
| 20260510072216 | 49 | 331 | 0.0 | 0.0 | 0.00 | 0.00 | 0.00 | 92 | 1008.3 |
| 20260510070712 | 50 | 331 | 0.0 | 0.0 | 0.00 | 0.00 | 0.00 | 92 | 1008.3 |
| 20260510065709 | 50 | 331 | 0.0 | 0.0 | 0.00 | 0.00 | 0.00 | 92 | 1008.3 |
| 20260510065207 | 50 | 331 | 0.0 | 0.0 | 0.00 | 0.00 | 0.00 | 92 | 1008.3 |
| 20260510064706 | 50 | 331 | 0.0 | 0.0 | 0.00 | 0.00 | 0.00 | 92 | 1008.3 |
| 20260510064206 | 50 | 331 | 0.0 | 0.0 | 0.00 | 0.00 | 0.00 | 92 | 1008.3 |
| 20260510063706 | 50 | 331 | 0.0 | 0.0 | 0.00 | 0.00 | 0.00 | 92 | 1008.3 |
| 20260510063159 | 50 | 331 | 0.0 | 0.0 | 0.00 | 0.00 | 0.00 | 92 | 1008.3 |
| 20260510062702 | 50 | 331 | 0.0 | 0.0 | 0.00 | 0.00 | 0.00 | 92 | 1008.3 |
| 20260510062159 | 50 | 331 | 0.0 | 0.0 | 0.00 | 0.00 | 0.00 | 92 | 1008.3 |
| 20260510061657 | 51 | 331 | 0.0 | 0.0 | 0.00 | 0.00 | 0.00 | 91 | 1008.3 |
| 20260510061158 | 51 | 331 | 0.0 | 0.0 | 0.00 | 0.00 | 0.00 | 91 | 1008.4 |
| 20260510060655 | 51 | 331 | 0.0 | 0.0 | 0.00 | 0.00 | 0.00 | 91 | 1008.4 |
| 20260510060152 | 51 | 331 | 0.0 | 0.0 | 0.00 | 0.00 | 0.00 | 91 | 1008.4 |
| 20260510055654 | 51 | 331 | 0.0 | 0.0 | 0.00 | 0.00 | 0.00 | 91 | 1008.4 |
| 20260510054659 | 51 | 331 | 0.0 | 0.0 | 0.00 | 0.00 | 0.00 | 91 | 1008.4 |
| 20260510054153 | 51 | 331 | 0.0 | 0.0 | 0.00 | 0.00 | 0.00 | 91 | 1008.4 |
| 20260510053648 | 51 | 331 | 0.0 | 0.0 | 0.00 | 0.00 | 0.00 | 91 | 1008.4 |
| 20260510052644 | 52 | 331 | 0.0 | 0.0 | 0.00 | 0.00 | 0.00 | 91 | 1008.4 |
| 20260510052141 | 52 | 331 | 0.0 | 0.0 | 0.00 | 0.00 | 0.00 | 91 | 1008.4 |
| 20260510051640 | 52 | 331 | 0.0 | 0.9 | 0.00 | 0.00 | 0.00 | 91 | 1008.4 |
| 20260510050640 | 52 | 331 | 0.0 | 1.7 | 0.00 | 0.00 | 0.00 | 91 | 1008.4 |
| 20260510050139 | 53 | 331 | 0.9 | 2.6 | 0.00 | 0.00 | 0.00 | 90 | 1008.4 |
| 20260510045633 | 53 | 331 | 0.0 | 2.6 | 0.00 | 0.00 | 0.00 | 90 | 1008.4 |
| 20260510045130 | 53 | 331 | 0.0 | 1.7 | 0.00 | 0.00 | 0.00 | 90 | 1008.4 |
| 20260510044630 | 53 | 331 | 0.0 | 1.7 | 0.00 | 0.00 | 0.00 | 90 | 1008.4 |
| 20260510043630 | 53 | 331 | 0.0 | 1.7 | 0.00 | 0.00 | 0.00 | 90 | 1008.4 |
| 20260510042118 | 54 | 331 | 0.0 | 1.7 | 0.00 | 0.00 | 0.00 | 89 | 1008.4 |
| 20260510041617 | 54 | 331 | 0.0 | 1.7 | 0.00 | 0.00 | 0.00 | 89 | 1008.4 |
| 20260510040608 | 54 | 331 | 0.0 | 2.6 | 0.00 | 0.00 | 0.00 | 88 | 1008.4 |
| 20260510040110 | 54 | 331 | 0.0 | 2.6 | 0.00 | 0.00 | 0.00 | 88 | 1008.4 |
| 20260510035609 | 55 | 331 | 0.0 | 1.7 | 0.00 | 0.00 | 0.00 | 87 | 1008.4 |
| 20260510035106 | 55 | 331 | 0.0 | 1.7 | 0.00 | 0.00 | 0.00 | 87 | 1008.4 |
| 20260510034603 | 55 | 331 | 0.0 | 1.7 | 0.00 | 0.00 | 0.00 | 87 | 1008.4 |
| 20260510034106 | 55 | 331 | 0.0 | 2.6 | 0.00 | 0.00 | 0.00 | 87 | 1008.3 |
| 20260510033601 | 55 | 331 | 0.0 | 2.6 | 0.00 | 0.00 | 0.00 | 87 | 1008.3 |
| 20260510032051 | 56 | 331 | 1.7 | 5.2 | 0.00 | 0.00 | 0.00 | 86 | 1008.0 |
| 20260510031548 | 56 | 319 | 1.7 | 5.2 | 0.00 | 0.00 | 0.00 | 85 | 1008.0 |
| 20260510031047 | 56 | 319 | 0.9 | 3.5 | 0.00 | 0.00 | 0.00 | 85 | 1007.5 |
| 20260510030544 | 56 | 317 | 0.9 | 5.2 | 0.00 | 0.00 | 0.00 | 85 | 1007.5 |
| 20260510030043 | 56 | 317 | 0.9 | 5.2 | 0.00 | 0.00 | 0.00 | 85 | 1007.5 |
| 20260510025540 | 56 | 317 | 1.7 | 6.1 | 0.00 | 0.00 | 0.00 | 84 | 1007.5 |
| 20260510025042 | 57 | 317 | 2.6 | 6.1 | 0.00 | 0.00 | 0.00 | 84 | 1007.5 |
| 20260510023538 | 57 | 321 | 1.7 | 3.5 | 0.00 | 0.00 | 0.00 | 82 | 1007.5 |
| 20260510023037 | 58 | 321 | 2.6 | 4.3 | 0.00 | 0.00 | 0.00 | 82 | 1007.5 |
| 20260510022536 | 58 | 320 | 1.7 | 4.3 | 0.00 | 0.00 | 0.00 | 81 | 1007.4 |
| 20260510021535 | 59 | 321 | 2.6 | 5.2 | 0.00 | 0.00 | 0.00 | 80 | 1007.4 |
| 20260510021034 | 59 | 320 | 1.7 | 4.3 | 0.00 | 0.00 | 0.00 | 79 | 1007.4 |
| 20260510020531 | 60 | 320 | 1.7 | 5.2 | 0.00 | 0.00 | 0.00 | 78 | 1007.4 |
| 20260510020033 | 60 | 320 | 2.6 | 6.1 | 0.00 | 0.00 | 0.00 | 77 | 1007.4 |
| 20260510015529 | 60 | 323 | 2.6 | 6.1 | 0.00 | 0.00 | 0.00 | 77 | 1007.4 |
| 20260510015028 | 61 | 322 | 3.5 | 7.8 | 0.00 | 0.00 | 0.00 | 77 | 1007.4 |
| 20260510014021 | 61 | 313 | 3.5 | 9.6 | 0.00 | 0.00 | 0.00 | 77 | 1007.4 |
| 20260510013521 | 61 | 304 | 3.5 | 9.6 | 0.00 | 0.00 | 0.00 | 76 | 1007.4 |
| 20260510013017 | 61 | 342 | 3.5 | 9.6 | 0.00 | 0.00 | 0.00 | 76 | 1007.4 |
| 20260510012515 | 61 | 301 | 4.3 | 9.6 | 0.00 | 0.00 | 0.00 | 76 | 1007.4 |
| 20260510011513 | 61 | 314 | 4.3 | 7.8 | 0.00 | 0.00 | 0.00 | 75 | 1007.4 |
| 20260510011007 | 61 | 316 | 4.3 | 10.4 | 0.00 | 0.00 | 0.00 | 75 | 1007.4 |
| 20260510010510 | 62 | 318 | 4.3 | 10.4 | 0.00 | 0.00 | 0.00 | 74 | 1007.4 |
| 20260510010004 | 62 | 319 | 4.3 | 9.6 | 0.00 | 0.00 | 0.00 | 74 | 1007.4 |
| 20260510005500 | 62 | 288 | 5.2 | 8.7 | 0.00 | 0.00 | 0.00 | 73 | 1007.4 |
| 20260510003455 | 65 | 302 | 4.3 | 8.7 | 0.00 | 0.00 | 0.00 | 70 | 1007.4 |
| 20260510002954 | 65 | 324 | 3.5 | 8.7 | 0.00 | 0.00 | 0.00 | 68 | 1007.4 |
| 20260510002453 | 65 | 315 | 4.3 | 7.8 | 0.00 | 0.00 | 0.00 | 69 | 1007.3 |
| 20260510001454 | 65 | 318 | 5.2 | 13.0 | 0.00 | 0.00 | 0.00 | 68 | 1007.3 |
| 20260510000951 | 65 | 301 | 4.3 | 10.4 | 0.00 | 0.00 | 0.00 | 69 | 1007.3 |
| 20260510000448 | 66 | 342 | 4.3 | 10.4 | 0.00 | 0.00 | 0.00 | 68 | 1007.3 |
| 20260509235948 | 66 | 338 | 5.2 | 11.3 | 0.00 | 0.00 | 0.00 | 68 | 1007.3 |
| 20260509235445 | 66 | 314 | 5.2 | 11.3 | 0.00 | 0.00 | 0.00 | 66 | 1007.3 |
| 20260509234944 | 67 | 319 | 4.3 | 10.4 | 0.00 | 0.00 | 0.00 | 66 | 1007.3 |
| 20260509234442 | 67 | 43 | 5.2 | 9.6 | 0.00 | 0.00 | 0.00 | 67 | 1007.3 |
| 20260509233443 | 67 | 326 | 5.2 | 10.4 | 0.00 | 0.00 | 0.00 | 67 | 1007.1 |
| 20260509232938 | 67 | 316 | 6.1 | 11.3 | 0.00 | 0.00 | 0.00 | 67 | 1007.1 |
| 20260509232435 | 67 | 337 | 6.1 | 11.3 | 0.00 | 0.00 | 0.00 | 66 | 1007.0 |
| 20260509231933 | 67 | 44 | 6.1 | 11.3 | 0.00 | 0.00 | 0.00 | 67 | 1007.0 |
| 20260509231429 | 67 | 309 | 5.2 | 11.3 | 0.00 | 0.00 | 0.00 | 65 | 1007.0 |
| 20260509230929 | 68 | 302 | 5.2 | 11.3 | 0.00 | 0.00 | 0.00 | 66 | 1007.0 |
| 20260509230432 | 67 | 330 | 5.2 | 12.2 | 0.00 | 0.00 | 0.00 | 66 | 1007.0 |
| 20260509225931 | 68 | 292 | 5.2 | 12.2 | 0.00 | 0.00 | 0.00 | 65 | 1007.0 |
| 20260509225426 | 67 | 308 | 5.2 | 11.3 | 0.00 | 0.00 | 0.00 | 66 | 1007.1 |
| 20260509224924 | 67 | 334 | 6.1 | 11.3 | 0.00 | 0.00 | 0.00 | 67 | 1007.1 |
| 20260509223922 | 67 | 306 | 6.1 | 13.0 | 0.00 | 0.00 | 0.00 | 66 | 1007.4 |
| 20260509223421 | 68 | 323 | 6.1 | 13.0 | 0.00 | 0.00 | 0.00 | 66 | 1007.4 |
| 20260509222918 | 67 | 297 | 6.1 | 11.3 | 0.00 | 0.00 | 0.00 | 66 | 1007.4 |
| 20260509222418 | 68 | 315 | 5.2 | 12.2 | 0.00 | 0.00 | 0.00 | 65 | 1007.5 |
| 20260509221915 | 67 | 322 | 6.1 | 13.9 | 0.00 | 0.00 | 0.00 | 66 | 1007.5 |
| 20260509220414 | 69 | 316 | 6.1 | 11.3 | 0.00 | 0.00 | 0.00 | 65 | 1007.5 |
| 20260509215913 | 69 | 340 | 6.1 | 12.2 | 0.00 | 0.00 | 0.00 | 64 | 1007.6 |
| 20260509214909 | 70 | 321 | 5.2 | 11.3 | 0.00 | 0.00 | 0.00 | 64 | 1007.6 |
| 20260509214406 | 69 | 324 | 6.1 | 11.3 | 0.00 | 0.00 | 0.00 | 65 | 1007.8 |
| 20260509213901 | 69 | 328 | 6.1 | 12.2 | 0.00 | 0.00 | 0.00 | 65 | 1007.8 |
| 20260509212858 | 69 | 322 | 5.2 | 12.2 | 0.00 | 0.00 | 0.00 | 63 | 1007.7 |
| 20260509211858 | 70 | 318 | 5.2 | 10.4 | 0.00 | 0.00 | 0.00 | 63 | 1007.7 |
| 20260509211358 | 70 | 281 | 5.2 | 10.4 | 0.00 | 0.00 | 0.00 | 63 | 1007.9 |
| 20260509210357 | 71 | 310 | 5.2 | 11.3 | 0.00 | 0.00 | 0.00 | 62 | 1007.9 |
| 20260509205852 | 71 | 321 | 5.2 | 11.3 | 0.00 | 0.00 | 0.00 | 62 | 1008.0 |
| 20260509205353 | 70 | 286 | 5.2 | 10.4 | 0.00 | 0.00 | 0.00 | 63 | 1008.0 |
| 20260509204851 | 70 | 323 | 5.2 | 10.4 | 0.00 | 0.00 | 0.00 | 63 | 1008.0 |
| 20260509204347 | 70 | 0 | 5.2 | 10.4 | 0.00 | 0.00 | 0.00 | 62 | 1008.0 |
| 20260509203344 | 71 | 0 | 4.3 | 8.7 | 0.00 | 0.00 | 0.00 | 62 | 1008.0 |
| 20260509202846 | 71 | 29 | 3.5 | 8.7 | 0.00 | 0.00 | 0.00 | 62 | 1008.1 |
| 20260509202344 | 71 | 326 | 3.5 | 8.7 | 0.00 | 0.00 | 0.00 | 63 | 1008.1 |
| 20260509201342 | 71 | 321 | 3.5 | 8.7 | 0.00 | 0.00 | 0.00 | 63 | 1008.3 |
| 20260509200840 | 71 | 311 | 3.5 | 8.7 | 0.00 | 0.00 | 0.00 | 63 | 1008.3 |
| 20260509200340 | 70 | 322 | 4.3 | 8.7 | 0.00 | 0.00 | 0.00 | 65 | 1008.3 |
| 20260509195837 | 71 | 327 | 3.5 | 8.7 | 0.00 | 0.00 | 0.00 | 63 | 1008.4 |
| 20260509195337 | 70 | 346 | 3.5 | 9.6 | 0.00 | 0.00 | 0.00 | 64 | 1008.4 |
| 20260509194835 | 69 | 329 | 4.3 | 9.6 | 0.00 | 0.00 | 0.00 | 66 | 1008.4 |
| 20260509193828 | 68 | 342 | 4.3 | 9.6 | 0.00 | 0.00 | 0.00 | 67 | 1008.6 |